TimeEDT,TemperatureF,Dew PointF,Humidity,Sea Level PressureIn,VisibilityMPH,Wind Direction,Wind SpeedMPH,Gust SpeedMPH,PrecipitationIn,Events,Conditions,WindDirDegrees,DateUTC
12:52 AM,37.0,27.0,67,29.99,10.0,NE,6.9,-,N/A,,Clear,50,2013-03-24 04:52:00
1:52 AM,37.9,26.1,62,30.00,10.0,NE,6.9,-,N/A,,Clear,40,2013-03-24 05:52:00
2:52 AM,36.0,26.1,67,29.97,10.0,North,6.9,-,N/A,,Clear,360,2013-03-24 06:52:00
3:52 AM,37.9,25.0,60,30.01,10.0,NNW,4.6,-,N/A,,Clear,340,2013-03-24 07:52:00
4:52 AM,34.0,24.1,67,29.99,10.0,North,3.5,-,N/A,,Clear,350,2013-03-24 08:52:00
5:52 AM,34.0,25.0,70,29.98,10.0,NNE,4.6,-,N/A,,Clear,20,2013-03-24 09:52:00
6:03 AM,33.8,24.8,70,29.97,10.0,NNE,5.8,-,N/A,,Mostly Cloudy,30,2013-03-24 10:03:00
6:52 AM,34.0,26.1,73,29.98,10.0,NNE,4.6,-,N/A,,Mostly Cloudy,20,2013-03-24 10:52:00
7:52 AM,37.0,27.0,67,29.96,10.0,North,11.5,-,N/A,,Mostly Cloudy,10,2013-03-24 11:52:00
8:52 AM,39.0,24.1,55,29.96,10.0,NNE,10.4,-,N/A,,Mostly Cloudy,20,2013-03-24 12:52:00
9:52 AM,39.9,23.0,51,29.94,10.0,NE,10.4,-,N/A,,Overcast,40,2013-03-24 13:52:00
10:52 AM,39.9,23.0,51,29.91,10.0,NNE,10.4,-,N/A,,Overcast,30,2013-03-24 14:52:00
11:52 AM,41.0,21.9,47,29.91,10.0,ENE,5.8,-,N/A,,Overcast,60,2013-03-24 15:52:00
12:52 PM,41.0,21.0,45,29.87,10.0,East,8.1,-,N/A,,Overcast,80,2013-03-24 16:52:00
1:52 PM,41.0,21.9,47,29.80,10.0,East,6.9,-,N/A,,Overcast,80,2013-03-24 17:52:00
2:52 PM,42.1,23.0,47,29.75,10.0,East,8.1,-,N/A,,Overcast,100,2013-03-24 18:52:00
3:52 PM,43.0,23.0,45,29.71,10.0,East,5.8,-,N/A,,Overcast,90,2013-03-24 19:52:00
4:52 PM,41.0,23.0,49,29.70,10.0,ENE,3.5,-,N/A,,Overcast,70,2013-03-24 20:52:00
5:52 PM,41.0,23.0,49,29.74,10.0,WNW,3.5,-,N/A,,Overcast,290,2013-03-24 21:52:00
6:52 PM,41.0,24.1,51,29.75,10.0,North,4.6,-,N/A,,Overcast,350,2013-03-24 22:52:00
7:52 PM,39.0,28.9,67,29.74,10.0,NNE,12.7,18.4,0.00,Rain,Light Rain,30,2013-03-24 23:52:00
8:52 PM,37.0,30.0,76,29.72,10.0,NE,9.2,-,0.01,,Overcast,40,2013-03-25 00:52:00
9:15 PM,35.6,30.2,81,29.70,2.5,NNE,13.8,-,0.01,Snow,Light Snow,30,2013-03-25 01:15:00
9:19 PM,33.8,30.2,87,29.69,1.8,NE,12.7,-,0.02,Snow,Light Snow,40,2013-03-25 01:19:00
9:31 PM,33.8,30.2,87,29.68,1.8,NE,13.8,-,0.03,Snow,Light Snow,50,2013-03-25 01:31:00
9:41 PM,33.8,30.2,87,29.69,2.0,NE,10.4,-,0.04,Snow,Light Snow,40,2013-03-25 01:41:00
9:52 PM,34.0,30.9,89,29.69,3.0,NNE,13.8,-,0.05,Snow,Light Snow,30,2013-03-25 01:52:00
10:40 PM,35.6,30.2,81,29.69,4.0,East,10.4,-,0.00,Rain,Light Rain,80,2013-03-25 02:40:00
10:52 PM,35.1,30.9,85,29.70,4.0,ENE,6.9,-,0.00,,Overcast,70,2013-03-25 02:52:00
11:52 PM,34.0,30.9,89,29.66,3.0,ENE,9.2,-,0.02,Snow,Light Snow,60,2013-03-25 03:52:00